METEREN Weather Reports


time (UTC)temp
C
wind
direction
speed
KPH
gust
KPH
rain 1hr
cm
rain 24hr
cm
rain mn
cm
humidity
%
barometer
mb
20260507023011 8 360 1.6 11.3 0.00 0.00 0.00 85 1013.0
20260507021510 8 360 4.8 11.3 0.00 0.00 0.00 85 1012.8
20260507020009 8 360 6.4 12.9 0.00 0.00 0.00 85 1012.7
20260507014506 8 360 6.4 11.3 0.00 0.00 0.00 84 1012.7
20260507013003 8 360 6.4 11.3 0.00 0.00 0.00 84 1012.7
20260507011502 8 360 3.2 9.7 0.00 0.00 0.00 84 1012.7
20260507010101 9 360 3.2 11.3 0.00 0.00 0.00 83 1012.5
20260507004558 9 360 3.2 9.7 0.00 0.00 0.00 82 1012.4
20260507003055 9 360 3.2 9.7 0.00 0.00 0.00 82 1012.3
20260507001602 10 360 6.4 11.3 0.00 0.00 0.00 81 1012.3
20260507000116 10 360 3.2 9.7 0.00 0.00 0.00 81 1012.2
20260506234607 10 360 4.8 9.7 0.00 0.00 0.00 80 1012.1
20260506233050 10 360 1.6 9.7 0.00 0.00 0.00 79 1011.9
20260506231545 10 360 4.8 9.7 0.00 0.00 0.00 79 1011.8
20260506230047 10 360 4.8 9.7 0.00 0.00 0.00 79 1011.9
20260506224547 10 360 8.0 17.7 0.00 0.00 0.00 80 1011.9
20260506223042 10 360 1.6 6.4 0.00 0.00 0.00 81 1011.8
20260506221551 10 360 1.6 6.4 0.00 0.00 0.00 80 1011.8
20260506220045 11 360 1.6 4.8 0.00 0.00 0.00 79 1011.6
20260506214540 11 360 0.0 0.0 0.00 0.00 0.00 78 1011.5
20260506213043 11 360 0.0 0.0 0.00 0.00 0.00 78 1011.3
20260506211544 11 360 0.0 0.0 0.00 0.00 0.00 78 1011.2
20260506210044 11 360 0.0 0.0 0.00 0.00 0.00 76 1011.1
20260506204535 11 360 0.0 0.0 0.00 0.00 0.00 76 1011.1
20260506203033 -17 0.0 0.0 0.00 0.00 0.00 1011.1
20260506201534 -17 0.0 0.0 0.00 0.00 0.00 1011.0
20260506200026 -17 0.0 0.0 0.00 0.00 0.00 1011.0
20260506194519 11 360 0.0 6.4 0.00 0.00 0.00 73 1010.8
20260506193027 -17 0.0 0.0 0.00 0.00 0.00 1010.7
20260506191513 11 360 1.6 4.8 0.00 0.00 0.00 72 1010.4
20260506190012 11 360 1.6 8.0 0.00 0.00 0.00 72 1010.3
20260506184510 11 360 1.6 9.7 0.00 0.00 0.00 71 1010.1
20260506183010 11 360 3.2 6.4 0.00 0.00 0.00 71 1010.0
20260506181517 -17 0.0 0.0 0.00 0.00 0.00 1009.7
20260506180002 -17 0.0 0.0 0.00 0.00 0.00 1009.7
20260506174600 12 360 6.4 11.3 0.00 0.00 0.00 70 1009.5
20260506173126 12 360 4.8 11.3 0.00 0.00 0.00 70 1009.4
20260506171558 -17 0.0 0.0 0.00 0.00 0.00 1009.1
20260506170106 12 360 4.8 12.9 0.00 0.00 0.00 69 1008.9
20260506164553 12 360 4.8 12.9 0.00 0.00 0.00 69 1009.0
20260506163057 12 360 8.0 14.5 0.00 0.00 0.00 70 1009.0
20260506161552 12 360 4.8 17.7 0.00 0.00 0.00 71 1009.1
20260506160050 12 360 4.8 17.7 0.00 0.00 0.00 71 1009.1
20260506154607 12 360 9.7 19.3 0.00 0.00 0.00 71 1009.0
20260506153049 12 360 6.4 14.5 0.00 0.00 0.00 72 1009.1
20260506151547 12 360 6.4 14.5 0.00 0.00 0.00 72 1009.0
20260506150046 12 360 9.7 19.3 0.00 0.00 0.00 71 1009.0
20260506144552 12 360 6.4 16.1 0.00 0.00 0.00 69 1008.9
20260506143046 12 360 12.9 19.3 0.00 0.00 0.00 68 1008.9
20260506141545 12 360 11.3 22.5 0.00 0.00 0.00 67 1009.0
20260506140041 -17 0.0 0.0 0.00 0.00 0.00 1008.8
20260506134539 12 360 8.0 19.3 0.00 0.00 0.00 66 1008.6
20260506133052 12 360 9.7 16.1 0.00 0.00 0.00 65 1008.7
20260506131538 12 360 14.5 32.2 0.00 0.00 0.00 64 1008.7
20260506130039 13 360 9.7 22.5 0.00 0.00 0.00 64 1008.6
20260506124536 12 360 12.9 25.7 0.00 0.00 0.00 61 1008.5
20260506123033 -17 0.0 0.0 0.00 0.00 0.00 1008.4
20260506121531 -17 0.0 0.0 0.00 0.00 0.00 1008.3
20260506120027 12 360 11.3 25.7 0.00 0.00 0.00 66 1008.1
20260506114528 12 360 11.3 19.3 0.00 0.00 0.00 66 1008.2
20260506113027 12 360 11.3 20.9 0.00 0.00 0.00 67 1008.2
20260506111526 12 360 11.3 20.9 0.00 0.00 0.00 68 1008.2
20260506110026 12 360 14.5 25.7 0.00 0.00 0.00 67 1008.1
20260506104551 12 360 12.9 22.5 0.00 0.00 0.00 67 1008.1
20260506103025 13 360 12.9 24.1 0.00 0.00 0.00 65 1008.0
20260506101524 13 360 9.7 20.9 0.00 0.00 0.00 63 1007.8
20260506100023 13 360 11.3 25.7 0.00 0.00 0.00 63 1007.8
20260506094529 13 360 14.5 25.7 0.00 0.00 0.00 64 1007.8
20260506093019 12 360 11.3 20.9 0.00 0.00 0.00 66 1007.5
20260506091518 12 360 11.3 30.6 0.00 0.00 0.00 65 1007.7
20260506090015 12 360 17.7 29.0 0.00 0.00 0.00 67 1007.6
20260506084513 12 360 11.3 25.7 0.00 0.00 0.00 72 1007.3
20260506083028 12 360 9.7 32.2 0.00 0.00 0.00 74 1007.2
20260506081509 12 360 11.3 22.5 0.00 0.00 0.00 77 1007.1
20260506073100 11 360 12.9 24.1 0.00 0.00 0.00 83 1007.0
20260506071617 11 360 9.7 22.5 0.00 0.00 0.00 84 1006.9
20260506061543 10 360 6.4 16.1 0.00 0.00 0.00 88 1006.8
20260506044533 8 360 1.6 12.9 0.00 0.00 0.00 91 1006.9
20260506043028 8 360 3.2 11.3 0.00 0.00 0.00 92 1006.8
20260506041525 8 360 6.4 12.9 0.00 0.00 0.00 92 1006.9
20260506040040 8 360 6.4 12.9 0.00 0.00 0.00 92 1006.9
20260506034524 8 360 4.8 16.1 0.00 0.00 0.00 93 1007.0
20260506033027 8 360 6.4 14.5 0.00 0.00 0.00 93 1007.0
20260506031521 8 360 9.7 19.3 0.00 0.00 0.00 93 1007.1
20260506030022 8 360 4.8 19.3 0.00 0.00 0.00 94 1007.2
20260506024527 8 360 11.3 20.9 0.00 0.00 0.00 94 1007.4